Location: Moscow
(55.7500°N, 37.5830°E)
Time: 18:09:34
(UTC+03:00)

ISS - Pass Details

Date: 20 March 2026
Orbit: 416 x 425 km, 51.6° (Epoch: 19 April)

Event Time Altitude Azimuth Distance (km) Brightness Sun altitude
Rises 21:06:55 0° 271° (W) 2,388 1.1 -20.0°
Reaches altitude 10° 21:09:10 10° 260° (W) 1,519 -0.3 -20.2°
Enters shadow 21:11:41 29° 216° (SW) 816 -2.3 -20.5°
